TimeEDT,TemperatureF,Dew PointF,Humidity,Sea Level PressureIn,VisibilityMPH,Wind Direction,Wind SpeedMPH,Gust SpeedMPH,PrecipitationIn,Events,Conditions,WindDirDegrees,DateUTC
12:42 AM,64.4,62.6,94,29.89,9.0,WNW,11.5,-,0.00,Rain,Light Rain,300,2013-05-11 04:42:00
12:56 AM,63.0,61.0,93,29.89,6.0,NW,4.6,-,0.00,Rain,Light Rain,310,2013-05-11 04:56:00
1:46 AM,62.6,60.8,94,29.90,7.0,WNW,5.8,-,0.03,Rain,Light Rain,290,2013-05-11 05:46:00
1:56 AM,63.0,61.0,93,29.90,6.0,WNW,8.1,-,0.03,Rain,Light Rain,290,2013-05-11 05:56:00
2:56 AM,61.0,57.9,90,29.90,7.0,WNW,5.8,-,0.00,,Overcast,300,2013-05-11 06:56:00
3:56 AM,60.1,57.0,90,29.90,6.0,NW,6.9,-,N/A,,Overcast,320,2013-05-11 07:56:00
4:56 AM,59.0,55.9,90,29.91,5.0,NNW,8.1,-,N/A,,Overcast,340,2013-05-11 08:56:00
4:59 AM,57.2,55.4,94,29.91,5.0,North,8.1,-,N/A,,Overcast,350,2013-05-11 08:59:00
5:09 AM,57.2,55.4,94,29.91,5.0,North,11.5,-,N/A,,Overcast,350,2013-05-11 09:09:00
5:56 AM,55.9,54.0,93,29.91,4.0,NNW,9.2,-,0.00,,Light Drizzle,340,2013-05-11 09:56:00
6:30 AM,55.4,51.8,88,29.92,8.0,NNW,11.5,-,0.00,,Overcast,330,2013-05-11 10:30:00
6:40 AM,55.4,51.8,88,29.92,9.0,NW,11.5,-,0.00,,Mostly Cloudy,310,2013-05-11 10:40:00
6:51 AM,55.4,50.0,82,29.92,9.0,NNW,11.5,-,0.00,,Overcast,330,2013-05-11 10:51:00
6:56 AM,54.0,50.0,86,29.92,10.0,NNW,11.5,-,0.00,,Overcast,330,2013-05-11 10:56:00
7:31 AM,53.6,50.0,88,29.93,9.0,NW,8.1,-,N/A,,Overcast,320,2013-05-11 11:31:00
7:45 AM,53.6,50.0,88,29.93,9.0,NW,6.9,-,N/A,,Overcast,320,2013-05-11 11:45:00
7:54 AM,53.6,50.0,88,29.94,9.0,NW,4.6,-,N/A,,Overcast,320,2013-05-11 11:54:00
7:56 AM,55.0,50.0,83,29.93,9.0,NNW,6.9,-,N/A,,Overcast,330,2013-05-11 11:56:00
8:56 AM,54.0,48.9,83,29.95,10.0,NNW,9.2,-,N/A,,Overcast,330,2013-05-11 12:56:00
9:56 AM,55.0,50.0,83,29.95,10.0,NW,8.1,-,N/A,,Overcast,320,2013-05-11 13:56:00
10:56 AM,55.0,48.9,80,29.95,10.0,NW,5.8,-,N/A,,Overcast,310,2013-05-11 14:56:00
11:56 AM,55.9,48.9,77,29.97,10.0,West,8.1,-,N/A,,Overcast,270,2013-05-11 15:56:00
12:56 PM,57.0,48.9,74,29.96,10.0,West,9.2,-,N/A,,Overcast,280,2013-05-11 16:56:00
1:56 PM,57.0,48.9,74,29.97,10.0,West,10.4,-,N/A,,Overcast,280,2013-05-11 17:56:00
2:56 PM,59.0,48.9,69,29.96,10.0,WNW,10.4,-,N/A,,Mostly Cloudy,290,2013-05-11 18:56:00
3:56 PM,61.0,50.0,67,29.95,10.0,West,10.4,-,N/A,,Mostly Cloudy,280,2013-05-11 19:56:00
4:06 PM,60.8,48.2,63,29.95,10.0,WSW,6.9,-,N/A,,Mostly Cloudy,240,2013-05-11 20:06:00
4:56 PM,64.0,50.0,60,29.94,10.0,West,11.5,-,N/A,,Mostly Cloudy,270,2013-05-11 20:56:00
5:56 PM,63.0,50.0,63,29.95,10.0,West,13.8,19.6,N/A,,Mostly Cloudy,270,2013-05-11 21:56:00
6:56 PM,64.0,48.9,58,29.92,10.0,WSW,9.2,-,N/A,,Partly Cloudy,240,2013-05-11 22:56:00
7:56 PM,63.0,50.0,63,29.92,10.0,SW,6.9,-,N/A,,Mostly Cloudy,230,2013-05-11 23:56:00
8:56 PM,60.1,54.0,80,29.94,8.0,West,9.2,-,0.00,Rain,Light Rain,280,2013-05-12 00:56:00
9:56 PM,59.0,46.0,62,29.98,10.0,NW,16.1,26.5,0.00,,Scattered Clouds,310,2013-05-12 01:56:00
10:56 PM,55.9,39.0,53,30.01,10.0,NW,12.7,18.4,N/A,,Clear,310,2013-05-12 02:56:00
11:56 PM,54.0,37.0,53,30.04,10.0,NW,9.2,-,N/A,,Clear,310,2013-05-12 03:56:00